VY2EK-13 Weather Reports


time (UTC)temp
C
wind
direction
speed
KPH
gust
KPH
rain 1hr
cm
rain 24hr
cm
rain mn
cm
humidity
%
barometer
mb
20260508101013 6 77 3.2 4.8 0.00 0.00 0.00 99 1003.0
20260508100512 6 82 3.2 4.8 0.00 0.00 0.00 99 1003.0
20260508100011 6 67 4.8 4.8 0.00 0.00 0.00 99 1003.0
20260508095511 6 70 3.2 8.0 0.00 0.00 0.00 99 1003.0
20260508095012 6 56 6.4 6.4 0.00 0.00 0.00 99 1003.0
20260508094513 6 55 0.0 3.2 0.00 0.00 0.00 99 1003.0
20260508094011 6 31 1.6 3.2 0.00 0.00 0.00 99 1003.0
20260508093511 6 59 6.4 8.0 0.00 0.00 0.00 99 1002.0
20260508093012 5 60 4.8 8.0 0.00 0.00 0.00 99 1002.0
20260508092511 5 43 3.2 3.2 0.00 0.00 0.00 98 1003.0
20260508092011 5 55 4.8 8.0 0.00 0.00 0.00 98 1002.0
20260508091512 5 61 8.0 9.7 0.00 0.00 0.00 98 1002.0
20260508091011 5 66 6.4 9.7 0.00 0.00 0.00 99 1002.0
20260508090511 5 62 8.0 9.7 0.00 0.00 0.00 99 1002.0
20260508090014 5 49 8.0 9.7 0.00 0.00 0.00 99 1002.0
20260508085513 5 71 8.0 8.0 0.00 0.00 0.00 99 1002.0
20260508085012 5 57 6.4 8.0 0.00 0.00 0.00 99 1003.0
20260508084512 5 63 6.4 9.7 0.00 0.00 0.00 99 1002.0
20260508084012 5 66 6.4 8.0 0.00 0.00 0.00 99 1002.0
20260508083513 5 62 8.0 9.7 0.00 0.00 0.00 99 1003.0
20260508083012 5 57 8.0 9.7 0.00 0.00 0.00 99 1002.0
20260508082513 5 58 8.0 11.3 0.00 0.00 0.00 98 1003.0
20260508082012 5 66 8.0 9.7 0.00 0.00 0.00 99 1002.0
20260508081512 5 32 6.4 11.3 0.00 0.00 0.00 99 1002.0
20260508081013 5 14 9.7 9.7 0.00 0.00 0.00 99 1002.0
20260508080512 5 42 6.4 11.3 0.00 0.00 0.00 99 1002.0
20260508080012 5 39 9.7 12.9 0.00 0.00 0.00 99 1002.0
20260508075512 4 53 6.4 9.7 0.00 0.00 0.00 98 1002.0
20260508075011 4 62 6.4 6.4 0.00 0.00 0.00 98 1002.0
20260508074512 4 66 4.8 6.4 0.00 0.00 0.00 98 1003.0
20260508074012 4 86 4.8 4.8 0.00 0.00 0.00 97 1002.0
20260508073511 4 61 3.2 6.4 0.00 0.00 0.00 98 1003.0
20260508073011 4 60 3.2 4.8 0.00 0.00 0.00 98 1002.0
20260508072511 5 94 3.2 4.8 0.00 0.00 0.00 98 1002.0
20260508072011 5 57 0.0 3.2 0.00 0.00 0.00 98 1003.0
20260508071511 5 72 3.2 3.2 0.00 0.00 0.00 98 1002.0
20260508071012 5 85 3.2 3.2 0.00 0.00 0.00 98 1002.0
20260508070511 5 58 6.4 8.0 0.00 0.00 0.00 98 1002.0
20260508070013 5 93 3.2 4.8 0.00 0.00 0.00 98 1002.0
20260508065511 5 80 8.0 9.7 0.00 0.00 0.00 97 1002.0
20260508065011 5 65 8.0 9.7 0.00 0.00 0.00 97 1002.0
20260508064511 5 62 8.0 9.7 0.00 0.00 0.00 97 1002.0
20260508064012 5 65 6.4 9.7 0.00 0.00 0.00 97 1002.0
20260508063511 5 67 8.0 9.7 0.00 0.00 0.00 97 1002.0
20260508063015 5 63 8.0 9.7 0.00 0.00 0.00 98 1002.0
20260508062512 5 56 8.0 11.3 0.00 0.00 0.00 98 1002.0
20260508062011 5 61 11.3 12.9 0.00 0.00 0.00 98 1003.0
20260508061512 5 52 9.7 9.7 0.00 0.00 0.00 98 1003.0
20260508061011 5 59 8.0 9.7 0.00 0.00 0.00 98 1002.0
20260508060511 5 61 4.8 6.4 0.00 0.00 0.00 98 1002.0
20260508060012 5 49 6.4 8.0 0.00 0.00 0.00 98 1003.0
20260508055511 5 63 3.2 4.8 0.00 0.00 0.00 98 1003.0
20260508055012 5 75 3.2 3.2 0.00 0.00 0.00 98 1003.0
20260508054511 5 67 1.6 3.2 0.00 0.00 0.00 98 1003.0
20260508054011 5 61 1.6 4.8 0.00 0.00 0.00 98 1003.0
20260508053511 5 70 3.2 4.8 0.00 0.00 0.00 97 1003.0
20260508053014 5 80 4.8 6.4 0.00 0.00 0.00 98 1003.0
20260508052512 5 63 3.2 6.4 0.00 0.00 0.00 98 1003.0
20260508052015 5 81 3.2 6.4 0.00 0.00 0.00 97 1003.0
20260508051511 5 80 3.2 4.8 0.00 0.00 0.00 97 1003.0
20260508051011 5 79 3.2 4.8 0.00 0.00 0.00 97 1003.0
20260508050511 5 135 0.0 3.2 0.00 0.00 0.00 97 1003.0
20260508050011 5 133 4.8 8.0 0.00 0.00 0.00 97 1003.0
20260508045511 5 87 4.8 6.4 0.00 0.00 0.00 97 1003.0
20260508045011 5 77 4.8 4.8 0.00 0.00 0.00 97 1003.0
20260508044512 5 63 6.4 8.0 0.00 0.00 0.00 97 1003.0
20260508044011 5 67 6.4 9.7 0.00 0.00 0.00 97 1002.0
20260508043511 5 65 4.8 8.0 0.00 0.00 0.00 97 1003.0
20260508043012 5 87 4.8 6.4 0.00 0.00 0.00 97 1003.0
20260508042511 6 64 6.4 8.0 0.00 0.00 0.00 97 1003.0
20260508042012 5 92 3.2 4.8 0.00 0.00 0.00 97 1003.0
20260508041512 5 86 3.2 4.8 0.00 0.00 0.00 97 1002.0
20260508041011 5 68 4.8 6.4 0.00 0.00 0.00 96 1003.0
20260508040512 6 49 4.8 6.4 0.00 0.00 0.00 97 1003.0
20260508040011 6 12 8.0 8.0 0.00 0.00 0.00 97 1003.0
20260508035512 6 6 1.6 4.8 0.00 0.00 0.00 97 1003.0
20260508035011 6 76 3.2 4.8 0.00 0.00 0.00 97 1003.0
20260508034511 6 86 4.8 6.4 0.00 0.00 0.00 97 1003.0
20260508034012 6 113 3.2 8.0 0.00 0.00 0.00 96 1003.0
20260508033512 6 113 4.8 8.0 0.00 0.00 0.00 96 1003.0
20260508033011 6 87 4.8 6.4 0.00 0.00 0.00 97 1003.0
20260508032512 6 96 4.8 6.4 0.00 0.00 0.00 97 1003.0
20260508031600 6 129 4.8 9.7 0.00 0.00 0.00 97 1003.0
20260508031012 6 127 4.8 8.0 0.00 0.00 0.00 97 1003.0
20260508030512 6 104 4.8 6.4 0.00 0.00 0.00 96 1003.0
20260508030012 6 94 3.2 6.4 0.00 0.00 0.00 96 1003.0
20260508025513 7 73 3.2 6.4 0.00 0.00 0.58 96 1003.0
20260508025013 7 68 6.4 6.4 0.00 0.00 0.58 96 1003.0
20260508024512 7 89 3.2 8.0 0.00 0.00 0.58 96 1003.0
20260508024011 7 118 4.8 8.0 0.00 0.00 0.58 96 1003.0
20260508023512 7 96 4.8 6.4 0.00 0.00 0.58 96 1003.0
20260508023012 7 135 4.8 8.0 0.00 0.00 0.58 95 1003.0
20260508022511 7 76 3.2 6.4 0.00 0.00 0.58 95 1003.0
20260508022013 7 73 3.2 4.8 0.00 0.00 0.58 96 1003.0
20260508021512 7 89 3.2 4.8 0.00 0.00 0.58 95 1003.0
20260508021012 7 77 3.2 4.8 0.00 0.00 0.58 95 1003.0
20260508020513 7 82 3.2 4.8 0.00 0.00 0.58 95 1003.0
20260508020014 7 83 3.2 4.8 0.00 0.00 0.58 95 1003.0
20260508015511 7 89 4.8 4.8 0.00 0.00 0.58 94 1003.0
20260508015011 7 78 3.2 4.8 0.00 0.00 0.58 93 1003.0
20260508014512 7 95 3.2 4.8 0.00 0.00 0.58 94 1003.0
20260508014013 6 76 3.2 4.8 0.00 0.00 0.58 93 1003.0
20260508013511 6 83 4.8 4.8 0.00 0.00 0.58 93 1003.0
20260508013011 7 80 4.8 4.8 0.00 0.00 0.58 92 1003.0
20260508012512 7 83 4.8 4.8 0.00 0.00 0.58 92 1003.0
20260508012011 7 75 4.8 4.8 0.00 0.00 0.58 92 1003.0
20260508011511 7 80 3.2 4.8 0.00 0.00 0.58 92 1003.0
20260508011011 7 85 4.8 8.0 0.00 0.00 0.58 91 1003.0
20260508010512 7 77 4.8 6.4 0.00 0.00 0.58 92 1003.0
20260508010013 7 66 4.8 4.8 0.00 0.00 0.58 92 1003.0
20260508005511 6 81 3.2 6.4 0.00 0.00 0.58 90 1003.0
20260508005012 7 89 4.8 4.8 0.00 0.00 0.58 90 1003.0
20260508004513 7 68 6.4 8.0 0.00 0.00 0.58 90 1003.0
20260508004011 7 82 4.8 4.8 0.00 0.00 0.58 90 1003.0
20260508003512 7 97 3.2 4.8 0.00 0.00 0.58 89 1003.0
20260508003011 7 92 3.2 4.8 0.00 0.00 0.58 89 1003.0
20260508002511 7 75 3.2 4.8 0.00 0.00 0.58 88 1003.0
20260508002011 8 57 3.2 4.8 0.00 0.00 0.58 87 1003.0
20260508001511 8 75 4.8 4.8 0.00 0.00 0.58 87 1003.0
20260508001011 8 76 4.8 4.8 0.00 0.00 0.58 86 1003.0
20260508000512 9 67 6.4 8.0 0.00 0.00 0.58 87 1003.0
20260508000011 9 59 8.0 9.7 0.00 0.00 0.58 85 1002.0
20260507235512 9 58 4.8 6.4 0.00 0.00 0.58 84 1002.0
20260507235012 10 66 6.4 8.0 0.00 0.00 0.58 84 1002.0
20260507234515 10 64 6.4 6.4 0.00 0.00 0.58 83 1002.0
20260507234011 10 59 4.8 4.8 0.00 0.00 0.58 83 1002.0
20260507233511 11 66 8.0 9.7 0.00 0.00 0.58 82 1002.0
20260507233012 11 68 6.4 8.0 0.00 0.00 0.58 82 1002.0
20260507232514 11 70 9.7 11.3 0.00 0.00 0.58 82 1002.0
20260507232011 11 67 9.7 11.3 0.00 0.00 0.58 82 1002.0
20260507231511 12 56 6.4 8.0 0.00 0.00 0.58 83 1002.0
20260507231013 11 63 4.8 4.8 0.00 0.00 0.58 83 1002.0
20260507230511 11 66 6.4 6.4 0.00 0.00 0.58 83 1002.0
20260507230012 11 69 4.8 6.4 0.00 0.00 0.58 84 1002.0
20260507225512 11 60 4.8 8.0 0.00 0.00 0.58 84 1002.0
20260507225011 11 66 6.4 6.4 0.00 0.00 0.58 84 1002.0
20260507224511 11 79 4.8 8.0 0.00 0.00 0.58 84 1002.0
20260507224011 11 67 4.8 6.4 0.00 0.00 0.58 84 1002.0
20260507223513 11 72 4.8 6.4 0.00 0.00 0.58 84 1002.0
20260507223012 11 83 4.8 8.0 0.00 0.00 0.58 83 1002.0
20260507222511 11 59 11.3 11.3 0.00 0.00 0.58 83 1002.0
20260507222015 11 67 8.0 11.3 0.00 0.00 0.58 83 1002.0
20260507221512 11 69 11.3 11.3 0.00 0.00 0.58 83 1002.0
20260507221011 11 77 9.7 11.3 0.00 0.00 0.58 83 1002.0
20260507220512 11 75 14.5 16.1 0.00 0.00 0.58 82 1002.0
20260507220011 11 66 12.9 16.1 0.00 0.00 0.58 81 1002.0
20260507215514 12 71 11.3 16.1 0.00 0.00 0.58 80 1002.0
20260507215011 12 74 9.7 14.5 0.00 0.00 0.58 81 1002.0
20260507214511 12 71 4.8 12.9 0.00 0.00 0.58 81 1002.0
20260507214011 13 77 3.2 3.2 0.00 0.00 0.58 80 1002.0
20260507213512 13 57 1.6 4.8 0.00 0.00 0.58 79 1002.0
20260507213012 13 53 0.0 3.2 0.00 0.00 0.58 81 1002.0
20260507212512 13 101 3.2 4.8 0.00 0.00 0.58 80 1002.0
20260507212012 13 55 0.0 3.2 0.00 0.00 0.58 80 1002.0
20260507211512 13 76 1.6 4.8 0.00 0.00 0.58 80 1002.0
20260507211012 13 111 3.2 4.8 0.00 0.00 0.58 81 1002.0
20260507210512 13 69 1.6 4.8 0.00 0.00 0.58 81 1002.0
20260507210011 13 39 0.0 8.0 0.00 0.00 0.58 81 1002.0
20260507205511 13 129 4.8 11.3 0.00 0.00 0.58 81 1002.0
20260507205011 13 135 8.0 8.0 0.00 0.00 0.58 80 1001.0
20260507204511 13 119 4.8 4.8 0.00 0.00 0.58 82 1002.0
20260507204011 13 141 8.0 12.9 0.00 0.00 0.58 81 1001.0
20260507203511 13 142 12.9 12.9 0.00 0.00 0.58 83 1002.0
20260507203013 13 86 6.4 12.9 0.00 0.00 0.58 82 1001.0
20260507202521 13 141 8.0 11.3 0.00 0.00 0.58 82 1001.0
20260507202012 13 133 8.0 9.7 0.00 0.00 0.58 82 1001.0
20260507201513 13 99 3.2 14.5 0.00 0.00 0.58 81 1001.0
20260507201011 13 173 3.2 6.4 0.00 0.00 0.58 80 1001.0
20260507200511 13 54 3.2 8.0 0.00 0.00 0.58 83 1001.0
20260507200016 13 118 1.6 4.8 0.00 0.00 0.58 82 1001.0
20260507195513 13 158 8.0 9.7 0.00 0.00 0.58 81 1001.0
20260507195011 13 134 4.8 9.7 0.00 0.00 0.58 80 1001.0
20260507194512 14 137 9.7 12.9 0.00 0.00 0.58 80 1001.0
20260507194012 15 175 4.8 6.4 0.00 0.00 0.58 79 1001.0
20260507193511 14 143 11.3 14.5 0.00 0.00 0.58 82 1001.0
20260507193011 15 152 8.0 12.9 0.00 0.00 0.58 82 1001.0
20260507192511 13 320 0.0 8.0 0.00 0.00 0.58 84 1001.0
20260507192012 13 122 3.2 9.7 0.00 0.00 0.58 86 1001.0
20260507191512 13 67 4.8 16.1 0.00 0.00 0.58 86 1001.0
20260507191012 13 179 4.8 9.7 0.00 0.00 0.58 86 1001.0
20260507190512 13 120 11.3 11.3 0.00 0.00 0.58 86 1001.0
20260507190012 13 173 4.8 8.0 0.00 0.00 0.58 88 1001.0
20260507185511 13 210 3.2 11.3 0.00 0.00 0.58 88 1001.0
20260507185013 13 125 3.2 9.7 0.00 0.00 0.58 88 1001.0
20260507184512 13 186 4.8 6.4 0.00 0.00 0.58 89 1001.0
20260507184013 13 225 6.4 8.0 0.00 0.00 0.58 88 1001.0
20260507183512 13 164 3.2 8.0 0.00 0.00 0.58 95 1001.0
20260507183011 12 143 0.0 8.0 0.00 0.00 0.58 97 1001.0
20260507182511 12 240 0.0 4.8 0.00 0.00 0.58 97 1001.0
20260507182011 11 184 3.2 6.4 0.00 0.00 0.58 98 1001.0
20260507181511 11 101 1.6 3.2 0.00 0.00 0.58 99 1001.0
20260507181011 11 140 4.8 6.4 0.00 0.00 0.58 99 1001.0
20260507180514 10 301 0.0 4.8 0.00 0.00 0.58 99 1001.0
20260507180012 10 211 0.0 3.2 0.00 0.00 0.58 99 1002.0
20260507175511 10 53 0.0 4.8 0.00 0.00 0.58 99 1001.0
20260507175011 10 91 3.2 4.8 0.00 0.00 0.58 99 1001.0
20260507174516 10 214 4.8 8.0 0.00 0.00 0.58 99 1002.0
20260507174012 10 100 0.0 3.2 0.00 0.00 0.58 99 1002.0
20260507173512 9 112 0.0 6.4 0.00 0.00 0.58 99 1002.0
20260507173012 9 307 3.2 8.0 0.00 0.00 0.58 99 1002.0
20260507172515 9 205 0.0 8.0 0.00 0.00 0.58 99 1002.0
20260507172013 9 167 3.2 4.8 0.00 0.00 0.58 99 1002.0
20260507171512 9 170 6.4 6.4 0.00 0.00 0.58 99 1001.0
20260507171011 9 132 4.8 8.0 0.05 0.00 0.58 98 1002.0
20260507170512 9 156 6.4 14.5 0.05 0.00 0.58 98 1002.0
20260507170012 9 118 0.0 11.3 0.00 0.00 0.58 98 1002.0
20260507165511 9 74 1.6 8.0 0.00 0.00 0.58 98 1002.0
20260507165011 9 39 3.2 8.0 0.00 0.00 0.58 98 1001.0
20260507164512 9 221 0.0 6.4 0.00 0.00 0.58 98 1002.0
20260507164011 9 296 0.0 8.0 0.00 0.00 0.58 98 1002.0
20260507163511 9 142 3.2 9.7 0.00 0.00 0.58 98 1002.0
20260507163012 10 257 6.4 6.4 0.05 0.00 0.58 98 1002.0
20260507162511 10 193 4.8 8.0 0.05 0.00 0.58 98 1002.0
20260507162011 10 69 0.0 9.7 0.00 0.00 0.56 99 1001.0
20260507161512 9 122 4.8 9.7 0.00 0.00 0.56 98 1001.0
20260507161012 9 153 8.0 12.9 0.00 0.00 0.56 98 1002.0
20260507160512 10 113 3.2 6.4 0.05 0.00 0.56 98 1003.0
20260507160012 10 165 3.2 9.7 0.13 0.00 0.56 98 1002.0
20260507155513 10 144 6.4 11.3 0.05 0.00 0.56 98 1003.0
20260507155017 10 225 4.8 11.3 0.05 0.00 0.56 98 1002.0
20260507154512 10 225 4.8 9.7 0.05 0.00 0.56 98 1002.0
20260507154012 10 137 8.0 14.5 0.05 0.00 0.53 98 1002.0
20260507153512 10 134 6.4 14.5 0.00 0.00 0.53 98 1002.0
20260507153012 10 188 3.2 11.3 0.05 0.00 0.53 98 1003.0
20260507152511 10 359 3.2 9.7 0.18 0.00 0.53 98 1003.0
20260507152012 10 113 3.2 14.5 0.18 0.00 0.53 98 1003.0
20260507151512 10 126 4.8 16.1 0.13 0.00 0.51 98 1003.0
20260507151013 10 230 9.7 11.3 0.05 0.00 0.48 98 1003.0
20260507150511 10 165 3.2 16.1 0.23 0.00 0.48 97 1003.0
20260507145544 10 187 11.3 17.7 0.43 0.00 0.43 97 1003.0
20260507145011 10 151 4.8 17.7 0.30 0.00 0.38 97 1003.0
20260507144512 10 273 3.2 16.1 0.30 0.00 0.36 97 1003.0
20260507144011 10 125 16.1 20.9 0.48 0.00 0.33 97 1003.0
20260507143518 10 92 8.0 29.0 0.43 0.00 0.30 97 1003.0
20260507143012 10 114 3.2 16.1 0.18 0.00 0.25 97 1003.0
20260507142512 11 168 17.7 24.1 0.18 0.00 0.23 97 1003.0
20260507142012 11 167 12.9 24.1 0.18 0.00 0.20 98 1002.0
20260507141511 10 155 12.9 17.7 0.13 0.00 0.20 98 1003.0
20260507141012 10 219 16.1 29.0 0.18 0.00 0.18 98 1003.0
20260507140511 11 186 9.7 19.3 0.13 0.00 0.18 98 1003.0
20260507140012 11 178 4.8 14.5 0.00 0.00 0.15 98 1003.0
20260507135512 11 192 11.3 20.9 0.00 0.00 0.15 98 1003.0
20260507135013 11 139 19.3 20.9 0.00 0.00 0.15 98 1003.0
20260507134513 11 161 12.9 25.7 0.00 0.00 0.15 98 1003.0
20260507134011 11 213 9.7 29.0 0.00 0.00 0.15 98 1003.0
20260507133512 11 147 19.3 27.4 0.00 0.00 0.15 98 1002.0
20260507133012 11 150 11.3 17.7 0.00 0.00 0.15 98 1003.0
20260507132512 11 201 11.3 22.5 0.05 0.00 0.15 98 1003.0
20260507132014 11 221 3.2 29.0 0.05 0.00 0.15 98 1003.0
20260507131512 11 220 9.7 22.5 0.00 0.00 0.15 98 1003.0
20260507131012 11 144 4.8 16.1 0.00 0.00 0.15 98 1003.0
20260507130513 11 239 16.1 17.7 0.00 0.00 0.15 98 1003.0
20260507130013 11 157 16.1 22.5 0.00 0.00 0.15 98 1003.0
20260507125511 11 173 9.7 30.6 0.00 0.00 0.15 98 1003.0
20260507125012 11 142 17.7 33.8 0.00 0.00 0.15 98 1003.0
20260507124511 11 155 12.9 22.5 0.00 0.00 0.15 98 1003.0
20260507124012 11 205 9.7 17.7 0.00 0.00 0.15 97 1003.0
20260507123512 11 177 14.5 24.1 0.00 0.00 0.15 97 1003.0
20260507123012 11 146 12.9 24.1 0.00 0.00 0.15 97 1003.0
20260507122512 11 186 11.3 27.4 0.00 0.00 0.15 97 1003.0
20260507122011 11 157 12.9 32.2 0.05 0.00 0.15 97 1003.0
20260507121040 11 227 20.9 35.4 0.05 0.00 0.13 97 1003.0
20260507120511 11 175 12.9 33.8 0.00 0.00 0.13 96 1003.0
20260507120011 11 164 24.1 35.4 0.00 0.00 0.13 96 1003.0
20260507115512 11 159 16.1 29.0 0.00 0.00 0.13 96 1003.0
20260507115012 11 165 20.9 40.2 0.00 0.00 0.13 96 1002.0
20260507114512 11 171 17.7 38.6 0.00 0.00 0.13 97 1002.0
20260507114012 11 154 16.1 33.8 0.00 0.00 0.13 97 1002.0
20260507113512 11 166 17.7 30.6 0.00 0.00 0.13 97 1002.0
20260507113012 11 154 25.7 35.4 0.00 0.00 0.13 97 1002.0
20260507112512 11 140 16.1 33.8 0.00 0.00 0.13 97 1003.0
20260507112011 11 163 9.7 22.5 0.00 0.00 0.13 97 1003.0
20260507111512 11 161 20.9 22.5 0.00 0.00 0.13 96 1003.0
20260507111011 11 187 12.9 22.5 0.05 0.00 0.13 95 1003.0
20260507110511 11 194 14.5 19.3 0.05 0.00 0.13 94 1003.0
20260507110011 11 160 11.3 24.1 0.00 0.00 0.10 93 1003.0
20260507105513 12 168 4.8 24.1 0.00 0.00 0.10 94 1003.0
20260507105011 12 206 8.0 35.4 0.00 0.00 0.10 94 1003.0
20260507104511 12 185 12.9 35.4 0.00 0.00 0.10 94 1003.0
20260507104011 12 163 22.5 38.6 0.00 0.00 0.10 95 1003.0
20260507103511 12 131 24.1 38.6 0.00 0.00 0.10 95 1003.0
20260507103011 11 156 22.5 37.0 0.05 0.00 0.10 95 1002.0
20260507102511 11 153 27.4 38.6 0.05 0.00 0.10 95 1002.0
20260507102012 11 165 11.3 48.3 0.00 0.00 0.10 95 1003.0
20260507101511 11 154 19.3 40.2 0.00 0.00 0.10 95 1002.0